timestamp,surface_pressure_avg,surface_temp_avg,battery_voltage,lat,long
2018-11-17 00:00:00+00:00,240.5815,5.97,12.97,47.84626,-54.09684
2018-11-17 00:10:00+00:00,229.0615,5.96,12.89,47.84626,-54.09684
2018-11-17 00:20:00+00:00,224.1015,5.9,12.97,47.84626,-54.09684
2018-11-17 00:30:00+00:00,237.6964,5.9,13.05,47.84626,-54.09684
2018-11-17 00:40:00+00:00,251.0947,5.9,13.05,47.84626,-54.09684
2018-11-17 00:50:00+00:00,247.9664,5.9,13.05,47.84626,-54.09684
2018-11-17 01:00:00+00:00,243.1331,5.9,12.97,47.84626,-54.09684
2018-11-17 01:10:00+00:00,252.2414,5.9,12.89,47.84626,-54.09684
2018-11-17 01:20:00+00:00,248.5948,5.9,12.97,47.84626,-54.09684
2018-11-17 01:30:00+00:00,230.3181,5.9,12.97,47.84626,-54.09684
2018-11-17 01:40:00+00:00,218.8564,5.87,13.05,47.84626,-54.09684
2018-11-17 01:50:00+00:00,231.1847,5.88,13.05,47.84626,-54.09684
2018-11-17 02:00:00+00:00,235.6265,5.89,12.97,47.84626,-54.09684
2018-11-17 02:10:00+00:00,242.6714,5.9,12.89,47.84626,-54.09684
2018-11-17 02:20:00+00:00,243.1014,5.9,12.97,47.84626,-54.09684
2018-11-17 02:30:00+00:00,257.9147,5.8,12.97,47.84626,-54.09684
2018-11-17 02:40:00+00:00,262.2714,5.71,12.97,47.84626,-54.09684
2018-11-17 02:50:00+00:00,254.9814,5.77,13.05,47.84626,-54.09684
2018-11-17 03:00:00+00:00,255.5248,5.7,12.97,47.84626,-54.09684
2018-11-17 03:10:00+00:00,264.4214,5.7,12.89,47.84626,-54.09684
2018-11-17 03:20:00+00:00,276.2214,5.65,12.97,47.84626,-54.09684
2018-11-17 03:30:00+00:00,282.5581,5.64,12.97,47.84626,-54.09684
2018-11-17 03:40:00+00:00,284.7981,5.73,12.97,47.84626,-54.09684
2018-11-17 03:50:00+00:00,296.0881,5.74,12.97,47.84626,-54.09684
2018-11-17 04:00:00+00:00,304.2848,5.7,12.89,47.84626,-54.09684
2018-11-17 04:10:00+00:00,296.7114,5.7,12.81,47.84626,-54.09684
2018-11-17 04:20:00+00:00,294.4397,5.86,12.97,47.84626,-54.09684
2018-11-17 04:30:00+00:00,303.873,5.96,12.97,47.84626,-54.09684
2018-11-17 04:40:00+00:00,308.8647,5.9,12.97,47.84626,-54.09684
2018-11-17 04:50:00+00:00,305.3964,5.8,12.97,47.84626,-54.09684
2018-11-17 05:00:00+00:00,315.3396,5.8,12.89,47.84626,-54.09684
2018-11-17 05:10:00+00:00,330.8013,5.8,12.81,47.84626,-54.09684
2018-11-17 05:20:00+00:00,336.6696,5.8,12.89,47.84626,-54.09684
2018-11-17 05:30:00+00:00,324.9647,5.77,12.89,47.84626,-54.09684
2018-11-17 05:40:00+00:00,327.5414,5.79,12.97,47.84626,-54.09684
2018-11-17 05:50:00+00:00,337.8696,5.8,12.97,47.84626,-54.09684
2018-11-17 06:00:00+00:00,317.098,5.78,12.89,47.84626,-54.09684
2018-11-17 06:10:00+00:00,312.2531,5.7,12.81,47.84626,-54.09684
2018-11-17 06:20:00+00:00,320.853,5.7,12.89,47.84626,-54.09684
2018-11-17 06:30:00+00:00,332.728,5.7,12.89,47.84626,-54.09684
2018-11-17 06:40:00+00:00,334.288,5.7,12.89,47.84626,-54.09684
2018-11-17 06:50:00+00:00,340.9779,5.7,12.97,47.84626,-54.09684
2018-11-17 07:00:00+00:00,347.2396,5.87,12.89,47.84626,-54.09684
2018-11-17 07:10:00+00:00,350.1946,5.99,12.81,47.84626,-54.09684
2018-11-17 07:20:00+00:00,356.4912,5.8,12.89,47.84626,-54.09684
2018-11-17 07:30:00+00:00,354.238,5.77,12.89,47.84626,-54.09684
2018-11-17 07:40:00+00:00,347.1979,5.7,12.89,47.84626,-54.09684
2018-11-17 07:50:00+00:00,338.623,5.66,12.89,47.84626,-54.09684
2018-11-17 08:00:00+00:00,334.8713,5.69,12.81,47.84626,-54.09684
2018-11-17 08:10:00+00:00,330.0146,5.73,12.73,47.84626,-54.09684
2018-11-17 08:20:00+00:00,326.608,5.78,12.81,47.84626,-54.09684
2018-11-17 08:30:00+00:00,334.1846,5.78,12.81,47.84626,-54.09684
2018-11-17 08:40:00+00:00,336.1613,5.8,12.89,47.84626,-54.09684
2018-11-17 08:50:00+00:00,331.5396,5.9,12.89,47.84626,-54.09684
2018-11-17 09:00:00+00:00,325.9597,5.9,12.81,47.84626,-54.09684
2018-11-17 09:10:00+00:00,329.0163,5.9,12.73,47.84626,-54.09684
2018-11-17 09:20:00+00:00,323.7196,5.9,12.81,47.84626,-54.09684
2018-11-17 09:30:00+00:00,312.1213,5.82,12.81,47.84626,-54.09684
2018-11-17 09:40:00+00:00,307.563,5.8,12.89,47.84626,-54.09684
2018-11-17 09:50:00+00:00,311.2313,5.8,12.89,47.84626,-54.09684
2018-11-17 10:00:00+00:00,308.233,5.77,12.81,47.84626,-54.09684
2018-11-17 10:10:00+00:00,300.2531,5.6,12.73,47.84626,-54.09684
2018-11-17 10:20:00+00:00,292.1197,5.5,12.81,47.84626,-54.09684
2018-11-17 10:30:00+00:00,291.418,5.2,12.81,47.84626,-54.09684
2018-11-17 10:40:00+00:00,286.8614,5.1,12.81,47.84626,-54.09684
2018-11-17 10:50:00+00:00,282.4948,5.0,12.89,47.84626,-54.09684
2018-11-17 11:00:00+00:00,275.0864,4.8,12.81,47.84626,-54.09684
2018-11-17 11:10:00+00:00,273.7781,5.54,12.73,47.84626,-54.09684
2018-11-17 11:20:00+00:00,274.2131,5.33,12.81,47.84626,-54.09684
2018-11-17 11:30:00+00:00,269.528,5.6,12.81,47.84626,-54.09684
2018-11-17 11:40:00+00:00,265.633,5.89,12.81,47.84626,-54.09684
2018-11-17 11:50:00+00:00,270.673,6.0,12.89,47.84626,-54.09684
2018-11-17 12:00:00+00:00,267.3847,5.9,12.81,47.84626,-54.09684
2018-11-17 12:10:00+00:00,256.6881,5.78,12.73,47.84626,-54.09684
2018-11-17 12:20:00+00:00,257.7431,5.88,12.81,47.84626,-54.09684
2018-11-17 12:30:00+00:00,256.1581,5.9,12.81,47.84626,-54.09684
2018-11-17 12:40:00+00:00,241.6981,4.67,12.81,47.84626,-54.09684
2018-11-17 12:50:00+00:00,238.2514,5.68,12.89,47.84626,-54.09684
2018-11-17 13:00:00+00:00,252.8081,5.9,12.81,47.84626,-54.09684
2018-11-17 13:10:00+00:00,251.2131,5.8,12.81,47.84626,-54.09684
2018-11-17 13:20:00+00:00,246.6797,5.89,12.89,47.84626,-54.09684
2018-11-17 13:30:00+00:00,259.6398,5.91,12.97,47.84626,-54.09684
2018-11-17 13:40:00+00:00,270.9897,5.91,13.05,47.84626,-54.09684
2018-11-17 13:50:00+00:00,255.2364,5.9,13.13,47.84626,-54.09684
2018-11-17 14:00:00+00:00,245.5998,5.9,13.05,47.84626,-54.09684
2018-11-17 14:10:00+00:00,261.4114,5.9,12.97,47.84626,-54.09684
2018-11-17 14:20:00+00:00,266.218,5.9,13.05,47.84626,-54.09684
2018-11-17 14:30:00+00:00,254.0214,5.8,13.05,47.84626,-54.09684
2018-11-17 14:40:00+00:00,254.7781,5.6,13.05,47.84626,-54.09684
2018-11-17 14:50:00+00:00,272.1647,5.7,13.13,47.84626,-54.09684
2018-11-17 15:00:00+00:00,267.3864,5.7,13.13,47.84626,-54.09684
2018-11-17 15:10:00+00:00,253.5231,5.5,13.05,47.84626,-54.09684
2018-11-17 15:20:00+00:00,266.7664,5.72,13.21,47.84626,-54.09684
2018-11-17 15:30:00+00:00,269.9964,5.8,13.29,47.84626,-54.09684
2018-11-17 15:40:00+00:00,253.5531,5.8,13.37,47.84626,-54.09684
2018-11-17 15:50:00+00:00,253.0181,5.8,13.37,47.84626,-54.09684
2018-11-17 16:00:00+00:00,272.2198,6.0,13.37,47.84626,-54.09684
2018-11-17 16:10:00+00:00,268.8464,5.4,13.29,47.84626,-54.09684
2018-11-17 16:20:00+00:00,257.2347,5.98,13.37,47.84626,-54.09684
2018-11-17 16:30:00+00:00,275.8364,5.98,13.37,47.84626,-54.09684
2018-11-17 16:40:00+00:00,291.0264,5.9,14.32,47.84626,-54.09684
2018-11-17 16:50:00+00:00,281.7981,6.0,14.96,47.84626,-54.09684
2018-11-17 17:00:00+00:00,279.1014,5.5,14.4,47.84626,-54.09684
2018-11-17 17:10:00+00:00,291.3414,6.09,14.0,47.84626,-54.09684
2018-11-17 17:20:00+00:00,288.6647,5.88,13.92,47.84626,-54.09684
2018-11-17 17:30:00+00:00,277.4897,5.7,13.92,47.84626,-54.09684
2018-11-17 17:40:00+00:00,280.0764,5.43,14.08,47.84626,-54.09684
2018-11-17 17:50:00+00:00,289.6831,5.89,14.32,47.84626,-54.09684
2018-11-17 18:00:00+00:00,288.0997,5.8,14.32,47.84626,-54.09684
2018-11-17 18:10:00+00:00,281.4714,5.8,14.32,47.84626,-54.09684
2018-11-17 18:20:00+00:00,279.7764,5.83,14.4,47.84626,-54.09684
2018-11-17 18:30:00+00:00,280.5514,5.99,14.32,47.84626,-54.09684
2018-11-17 18:40:00+00:00,276.4747,5.6,14.24,47.84626,-54.09684
2018-11-17 18:50:00+00:00,273.9847,5.6,14.16,47.84626,-54.09684
2018-11-17 19:00:00+00:00,271.1764,5.6,13.92,47.84626,-54.09684
2018-11-17 19:10:00+00:00,268.0397,5.79,13.76,47.84626,-54.09684
2018-11-17 19:20:00+00:00,266.3431,6.09,13.68,47.84626,-54.09684
2018-11-17 19:30:00+00:00,273.998,6.09,13.6,47.84626,-54.09684
2018-11-17 19:40:00+00:00,275.0547,5.69,13.6,47.84626,-54.09684
2018-11-17 19:50:00+00:00,278.1281,5.72,13.53,47.84626,-54.09684
2018-11-17 20:00:00+00:00,281.9865,6.15,13.44,47.84626,-54.09684
2018-11-17 20:10:00+00:00,283.678,6.06,13.29,47.84626,-54.09684
2018-11-17 20:20:00+00:00,279.3164,6.23,13.29,47.84626,-54.09684
2018-11-17 20:30:00+00:00,282.7547,6.2,13.29,47.84626,-54.09684
2018-11-17 20:40:00+00:00,283.8064,6.26,13.21,47.84626,-54.09684
2018-11-17 20:50:00+00:00,286.4864,6.2,13.21,47.84626,-54.09684
2018-11-17 21:00:00+00:00,283.6346,6.16,13.13,47.84626,-54.09684
2018-11-17 21:10:00+00:00,285.6697,6.1,13.05,47.84626,-54.09684
2018-11-17 21:20:00+00:00,286.3947,6.1,13.13,47.84626,-54.09684
2018-11-17 21:30:00+00:00,290.853,6.1,13.13,47.84626,-54.09684
2018-11-17 21:40:00+00:00,286.688,6.1,13.13,47.84626,-54.09684
2018-11-17 21:50:00+00:00,285.5031,6.32,13.13,47.84626,-54.09684
2018-11-17 22:00:00+00:00,284.6931,6.4,13.05,47.84626,-54.09684
2018-11-17 22:10:00+00:00,282.4081,6.48,12.97,47.84626,-54.09684
2018-11-17 22:20:00+00:00,276.9014,6.46,13.05,47.84626,-54.09684
2018-11-17 22:30:00+00:00,267.9747,6.08,13.05,47.84626,-54.09684
2018-11-17 22:40:00+00:00,260.2664,6.2,13.05,47.84626,-54.09684
2018-11-17 22:50:00+00:00,258.0064,6.37,13.05,47.84626,-54.09684
2018-11-17 23:00:00+00:00,262.9548,6.43,12.97,47.84626,-54.09684
2018-11-17 23:10:00+00:00,254.6881,6.46,12.97,47.84626,-54.09684
2018-11-17 23:20:00+00:00,243.3047,6.4,13.05,47.84626,-54.09684
2018-11-17 23:30:00+00:00,242.7165,6.3,13.05,47.84626,-54.09684
2018-11-17 23:40:00+00:00,247.0281,6.3,13.05,47.84626,-54.09684
2018-11-17 23:50:00+00:00,247.5731,6.3,13.05,47.84626,-54.09684
